Weather History for KJST - June, 2012

Change the Weather History Date:

Friday, June 8, 2012

  Actual Average Record
Temperature  
Mean Temperature 61 °F 63 °F  
Max Temperature 73 °F 72 °F 98 °F (1933)
Min Temperature 50 °F 54 °F 36 °F (1944)
Degree Days  
Heating Degree Days 4 4  
Month to date heating degree days 37  
Since 1 June heating degree days 37  
Since 1 July heating degree days 6646  
Cooling Degree Days 0 2  
Month to date cooling degree days 13  
Year to date cooling degree days 37  
Since 1 June cooling degree days 13  
Growing Degree Days 11 (Base 50)    
Moisture  
Dew Point 48 °F    
Average Humidity 62    
Maximum Humidity 89    
Minimum Humidity 42    
Precipitation  
Precipitation 0.00 in 0.15 in 1.59 in (1947)
Month to date precipitation 1.20  
Year to date precipitation 17.84  
Sea Level Pressure  
Sea Level Pressure 30.03 in    
Wind  
Wind Speed 8 mph (West)    
Max Wind Speed 15 mph    
Max Gust Speed 20 mph    
Visibility 10 miles    
Events      
T = Trace of Precipitation, MM = Missing Value Source: NWS Daily Summary

Daily Weather History Graph

Daily Weather History Graph

Search for Another Location

Airport or City:

Trip Planner

Search our weather history database for the weather conditions in past years. The results will help you decide how hot, cold, wet, or windy it might be!

Date:

Astronomy

Jun. 08, 2012 Rise Set
Actual Time 5:45 AM EDT 8:43 PM EDT
Civil Twilight 5:12 AM EDT 9:16 PM EDT
Nautical Twilight 4:30 AM EDT 9:58 PM EDT
Astronomical Twilight 3:42 AM EDT 10:46 PM EDT
Moon No Moon Rise 10:23 AM EDT (6/8)
Length of Visible Light 16h 04m
Length of Day
14h 58m
Waning Gibbous, 77% of the Moon is Illuminated
Jun 8
Waning Gibbous
Jun 11
Last Quarter
Jun 19
New
Jun 26
First Quarter
Jul 3
Full

Hourly Weather History & Observations

Time (EDT) Temp. Dew Point Humidity Pressure Visibility Wind Dir Wind Speed Gust Speed Precip Events Conditions
12:54 AM 52.0 °F 48.9 °F 89% 30.05 in 10.0 mi SW 8.1 mph - N/A   Clear
1:54 AM 53.1 °F 50.0 °F 89% 30.05 in 10.0 mi WSW 6.9 mph - N/A   Mostly Cloudy
2:54 AM 53.1 °F 48.9 °F 86% 30.04 in 10.0 mi West 3.5 mph - N/A   Overcast
3:54 AM 52.0 °F 46.9 °F 83% 30.04 in 10.0 mi West 5.8 mph - N/A   Scattered Clouds
4:54 AM 51.1 °F 46.9 °F 86% 30.03 in 10.0 mi WSW 8.1 mph - N/A   Clear
5:54 AM 50.0 °F 46.9 °F 89% 30.04 in 10.0 mi SW 6.9 mph - N/A   Clear
6:54 AM 52.0 °F 48.9 °F 89% 30.06 in 10.0 mi WSW 6.9 mph - N/A   Clear
7:54 AM 55.9 °F 48.9 °F 77% 30.07 in 10.0 mi West 5.8 mph - N/A   Clear
8:54 AM 60.1 °F 50.0 °F 69% 30.08 in 10.0 mi West 8.1 mph - N/A   Clear
9:54 AM 63.0 °F 48.9 °F 60% 30.08 in 10.0 mi WNW 6.9 mph - N/A   Clear
10:54 AM 66.0 °F 50.0 °F 56% 30.08 in 10.0 mi WNW 8.1 mph - N/A   Clear
11:54 AM 69.1 °F 48.9 °F 49% 30.07 in 10.0 mi WNW 8.1 mph 18.4 mph N/A   Clear
12:54 PM 69.1 °F 50.0 °F 51% 30.05 in 10.0 mi WNW 8.1 mph - N/A   Partly Cloudy
1:54 PM 72.0 °F 48.0 °F 43% 30.03 in 10.0 mi WNW 15.0 mph - N/A   Partly Cloudy
2:54 PM 68.0 °F 50.0 °F 52% 30.03 in 10.0 mi West 6.9 mph - N/A   Mostly Cloudy
3:54 PM 72.0 °F 50.0 °F 46% 30.00 in 10.0 mi WNW 12.7 mph 19.6 mph N/A   Scattered Clouds
4:54 PM 71.1 °F 46.9 °F 42% 29.99 in 10.0 mi West 10.4 mph - N/A   Overcast
5:54 PM 72.0 °F 48.9 °F 44% 29.99 in 10.0 mi West 11.5 mph - N/A   Clear
6:54 PM 72.0 °F 48.9 °F 44% 29.98 in 10.0 mi WNW 9.2 mph - N/A   Scattered Clouds
7:54 PM 69.1 °F 46.9 °F 45% 29.98 in 10.0 mi WNW 6.9 mph - N/A   Clear
8:54 PM 66.9 °F 46.0 °F 47% 29.97 in 10.0 mi NW 8.1 mph - N/A   Clear
9:54 PM 63.0 °F 45.0 °F 52% 29.99 in 10.0 mi NW 6.9 mph - N/A   Clear
10:54 PM 62.1 °F 45.0 °F 53% 30.00 in 10.0 mi NW 5.8 mph - N/A   Clear
11:54 PM 62.1 °F 44.1 °F 52% 30.00 in 10.0 mi WNW 5.8 mph - N/A   Clear